Zurück zum Katalog

DANDE

AktivWissenschaftPO
NORAD 39267·PAYLOAD·🇺🇸 United States

Gestartet Sep 29, 2013 von Vandenberg Space Force Base

Loading…

Nächste Überflüge (nächste 24 Stunden)

TLE

AktuellSource: Space-Track

Epoche: Sep 14, 2026, 14:43 UTC

1 39267U 13055C   26257.61382419  .00009826  00000-0  18032-3 0  9999
2 39267  80.9851  71.5182 0453471 358.9889   1.0351 14.81948475673443

Verfolge DANDE in Echtzeit mit AllMySat

Download on the App Store